Location: Newark
(42.9858°N, 0.6717°E)
Time: 04:39:31
(UTC+00:00)

S-56A Canister/Altair - Pass Details

Date: 25 November 2019
Orbit: 633 x 2500 km, 38.9° (Epoch: 12 December)

Event Time Altitude Azimuth Distance (km) Brightness Sun altitude
Rises 11:58:29 0° 191° (SSW) 6,159 13.4 26.2°
Reaches altitude 10° 12:04:21 10° 177° (S) 5,062 13.5 26.1°
Maximum altitude 12:13:04 19° 139° (SE) 4,031 12.0 25.9°
Drops below altitude 10° 12:20:36 10° 100° (E) 4,317 11.4 25.7°
Sets 12:24:57 0° 84° (E) 4,998 11.5 25.6°
